Regional Weather Roundup
Issued by NWS

Home | Current Version | Previous Version | Text Only | Print | Product List | Glossary Off
Versions: 1 2 3 4 5 6 7 8 9 10 11 12 13 14 15 16 17 18 19 20 21 22 23 24 25 26 27 28 29 30 31 32 33 34 35 36 37 38 39 40 41 42 43 44 45 46 47 48 49

000
ASUS43 KDMX 181207
RWRIA

WEATHER ROUNDUP FOR IOWA
NATIONAL WEATHER SERVICE DES MOINES IA
700 AM CDT THU SEP 18 2014

NOTE: "FAIR" INDICATES FEW OR NO CLOUDS BELOW 12,000 FEET WITH NO
SIGNIFICANT WEATHER AND/OR OBSTRUCTIONS TO VISIBILITY.

* - THESE STATIONS ARE NOT NWS STATIONS...THUS NOT UNDER NWS
QUALITY CONTROL.  THEY ALSO DO NOT REPORT WEATHER SUCH
AS PRECIPITATION OR FOG.

IAZ001>003-012>014-020>022-031>034-043>046-181300-
   NORTHWEST IOWA

CITY           SKY/WX    TMP DP  RH WIND       PRES   REMARKS
CARROLL *      FOG       52  52 100 CALM      30.04R VSB 0
CHEROKEE *     CLEAR     50  50 100 CALM      30.03R
DENISON *      MOCLDY    52  52 100 CALM      30.01S FOG
LE MARS *        N/A     55  54  94 CALM      30.01R
ORANGE CITY *  CLEAR     57  54  88 E5        30.01R
SHELDON *      CLOUDY    52  52 100 SE6       30.01R
SIOUX CITY     PTCLDY    56  55  97 E5        30.00R
6HR MIN TEMP:  56; 6HR MAX TEMP:  60;

SPENCER        PTCLDY    48  46  93 E6        30.03R
6HR MIN TEMP:  47; 6HR MAX TEMP:  54;

STORM LAKE *   CLEAR     50  50 100 SE7       30.04R FOG
$$

IAZ055>058-069>071-079>083-090>094-181300-
   SOUTHWEST IOWA

CITY           SKY/WX    TMP DP  RH WIND       PRES   REMARKS
ATLANTIC *     CLOUDY    57  57 100 S8        30.03R FOG
AUDUBON *      FOG       52  48  87 CALM      30.05R VSB 1/4
CLARINDA *     CLOUDY    61  61 100 CALM      30.04R FOG
COUNCIL BLFS * CLOUDY    59  59 100 SE10      30.01R FOG
CRESTON *      FOG       57  57 100 SE6       30.04S VSB 1/4
HARLAN  *      FOG       55  55 100 CALM      30.07R VSB 1/4
LAMONI         FOG       56  56 100 E5        30.03S VSB 1/4
6HR MIN TEMP:  56; 6HR MAX TEMP:  59;

SHENANDOAH *   CLOUDY    63  61  94 E6        30.01S FOG
$$

IAZ047>049-059>061-072>074-084-181300-
   CENTRAL IOWA

CITY           SKY/WX    TMP DP  RH WIND       PRES   REMARKS
AMES           FOG       46  46 100 CALM      30.05R VSB 1/4
6HR MIN TEMP:  45; 6HR MAX TEMP:  52;

ANKENY *       CLEAR     50  50 100 CALM      30.05R FOG
CHARITON *     FOG       52  50  93 E3        30.04S VSB 0
DES MOINES     PTCLDY    57  54  89 CALM      30.05R
6HR MIN TEMP:  57; 6HR MAX TEMP:  62;

GRINNELL*      FOG       48  46  93 E5        30.06S VSB<1/4
KNOXVILLE *    FOG       52  52 100 SE6       30.04R VSB 0
MARSHALLTOWN   FOG       47  46  97 E3        30.06R VSB 1/4
6HR MIN TEMP:  46; 6HR MAX TEMP:  52;

PELLA *        CLOUDY    51  50  99 CALM      30.06S FOG
PERRY *        FOG       53  52  99 CALM      30.05R VSB<1/4
$$

IAZ004>006-015-016-023>025-035-036-181300-
   NORTH CENTRAL IOWA

CITY           SKY/WX    TMP DP  RH WIND       PRES   REMARKS
ALGONA *       CLEAR     52  52 100 SE6       30.05R FOG
CLARION *        N/A     52  52 100 SE6       30.06R
ESTHERVILLE    FOG       46  46 100 CALM      30.04R VSB 1/4
6HR MIN TEMP:  45; 6HR MAX TEMP:  54;

FORT DODGE *   CLEAR     52  48  87 SE5       30.06R
MASON CITY     PTCLDY    42  42 100 CALM      30.08R FOG
6HR MIN TEMP:  41; 6HR MAX TEMP:  50;

FOREST CITY *  FOG       45  45 100 CALM      30.06R VSB 1/4
IOWA FALLS *   FOG       46  45  93 CALM      30.07R VSB 1/2
$$

IAZ007>011-017>019-026>030-037>042-050>054-066-181300-
   NORTHEAST IOWA

CITY           SKY/WX    TMP DP  RH WIND       PRES   REMARKS
CEDAR RAPIDS   CLEAR     45  45 100 CALM      30.08R FOG
6HR MIN TEMP:  45; 6HR MAX TEMP:  51;

CHARLES CITY * CLEAR     46  46 100 E5        30.08R FOG
CLINTON *      CLOUDY    46  45  93 CALM      30.11R VSB<1/4
DECORAH *      CLEAR     46  46 100 CALM      30.07R FOG
DUBUQUE        CLEAR     47  47 100 CALM      30.09R FOG
6HR MIN TEMP:  46; 6HR MAX TEMP:  51;

MONTICELLO *   CLEAR     43  43 100 CALM      30.08R
OELWEIN *      CLEAR     46  46 100 CALM      30.09R FOG
WATERLOO       CLEAR     43  42  97 E3        30.07R
6HR MIN TEMP:  43; 6HR MAX TEMP:  50;

$$

IAZ064-065-067-068-078-181300-
   EAST CENTRAL IOWA

CITY           SKY/WX    TMP DP  RH WIND       PRES   REMARKS
DAVENPORT      CLEAR     47  45  93 SE3       30.09R FOG
6HR MIN TEMP:  45; 6HR MAX TEMP:  50;

IOWA CITY      CLEAR     47  46  97 CALM      30.09R
6HR MIN TEMP:  46; 6HR MAX TEMP:  50;

MT. PLEASANT * CLEAR     46  45  97 NE3       30.07R FOG
MUSCATINE *    FOG       46  46 100 CALM      30.09R VSB 0
QUAD CITIES    CLEAR     49  46  90 CALM      30.09R FOG
6HR MIN TEMP:  45; 6HR MAX TEMP:  50;

$$

IAZ062-063-075>077-085>089-095>099-181300-
   SOUTHEAST IOWA

CITY           SKY/WX    TMP DP  RH WIND       PRES   REMARKS
BURLINGTON     PTCLDY    49  48  97 CALM      30.07R FOG
6HR MIN TEMP:  48; 6HR MAX TEMP:  53; 6HR PCP: TRACE;

FAIRFIELD *    FOG       46  45  93 E3        30.06S VSB 1
FORT MADISON * FOG       48  48 100 CALM      30.06F VSB 1/4
KEOKUK *       FOG       48  48 100 CALM      30.05S VSB 0
OSKALOOSA *    FOG       47  46  98 E6        30.07R VSB 1/2
CENTERVILLE *  FOG       48  48 100 CALM      30.06R VSB 1
OTTUMWA        FOG       45  45 100 CALM      30.05S VSB 1/4
6HR MIN TEMP:  45; 6HR MAX TEMP:  53;

WASHINGTON *   FOG       45  45 100 NE5       30.07R VSB 0
$$

ABBREVIATIONS USED IN REMARKS
   TC - TEMPERATURES IN CELSIUS
  WCI - WIND CHILL INDEX
   HX - HEAT INDEX
  VSB - VISIBILITY
$$




USA.gov is the U.S. government's official web portal to all federal, state and local government web resources and services.